World > North America > United States > Texas   City of Plano, TX

Plano, Texas Regional Weather

Lat: 33.05N, Lon: 96.75W
Wx Zone: TXZ104
Warning NWS WEATHER ALERT - (More Info. Click Here) Warning
Feedback

Plano, TX Regional Weather

Expires:202002231200;;966839
ASUS44 KFWD 231115
RWRTX 
NORTH TEXAS HOURLY WEATHER ROUNDUP
NATIONAL WEATHER SERVICE FORT WORTH TX
500 AM CST SUN FEB 23 2020

NOTE: "FAIR" INDICATES FEW OR NO CLOUDS BELOW 12,000 FEET WITH NO
SIGNIFICANT WEATHER AND/OR OBSTRUCTIONS TO VISIBILITY.


TXZ091>094-102>105-117-120-121-131>134-231200-
NORTH CENTRAL TEXAS
  
CITY           SKY/WX    TMP DP  RH WIND       PRES   REMARKS
SHRMAN/DENISON FAIR      48  39  69 S12       30.07F                  
GAINESVILLE    FAIR      46  38  76 S6        30.07S                  
BOWIE          FAIR      50  43  77 S8        30.02F                  
BRIDGEPORT     FAIR      49  41  74 S6        30.05S                  
DECATUR        FAIR      48  41  77 S13       30.02F                  
DENTON         FAIR      49  41  74 S12       30.05F                  
MCKINNEY       CLOUDY    49  41  74 S9        30.07F                  
BONHAM         FAIR      48  41  74 S12       30.09S                  
GREENVILLE     FAIR      50  43  76 S8        30.11R                  
ROCKWALL       MOCLDY    48  42  79 SE10      30.10R                  
TERRELL        CLOUDY    49  42  77 S10       30.12S                  
WAXAHACHIE     CLOUDY    46  43  90 SE5       30.10F                  
CLEBURNE       CLOUDY    50  46  87 S14       30.07F                  
GRANBURY       FAIR      48  43  81 SE9       30.06F                  
$$


SKY/WX - Weather  TMP - Temperature  DP - Dew Point  RH - Relative Humidity
WIND - Wind Direction/Speed PRES - Barometric Pressure VSB - Visibility
WCI - Wind Chill Index E13G22 Wind - East Wind 13 mph/Gusts of 22 mph
Plano Weather Map
What is UTC time?